ONEWEB-0692, 61600

Orbit data source: Space-Track

ONEWEB-0692, 61600 is a payload satellite owned by Eut. One Web (UK) in LEO that was launched on Sun, 20 Oct 2024 UTC via an FALCON 9 launch vehicle from the Air Force Western Test Range (AFWTR). Payload-class satellites include a variety of spacecraft equipped with specific instruments for various scientific and technological missions. These include communications satellites like Starlink; space stations such as the ISS; scientific satellites like the Hubble; Earth observation satellites from companies like Planet Labs, Umbra, and HawkEye 360; GPS; miniature CubeSats for education and research; and military/defense satellites.

Loading next visibility...
Identifier
61600, 2024-188G
Orbit
LEO
Country
Flag of UKUK
Related business
Manufacturer
One Web
Mission
Operational Commercial Communications
Bus & Motor
ARROW, Unknown motor
Mass
148 kg wet, ~140 kg dry
Launch date (UTC)
2024-10-20 (2 years ago)
Launch vehicle
FALCON 9
Launch site
Air Force Western Test Range (AFWTR)
Object type
Payload
Rocket body
Debris
Shape & HBR
Trap Box + 2 Pan, 6.7 m
Radar Cross Section
3.464 m², Large (>1 m²)

Expand to show TLE details & history
Last TLE update: 17 hours ago

TLE from 17 hours ago
0 ONEWEB-0692
1 61600U 24188G   26207.96681752 -.00000343  00000-0 -10033-2 0  9998
2 61600  87.8896  13.1634 0002588  87.4930 272.6494 13.11418043 89684
Epoch: 2026-07-26T23:12Z
TLE epoch observation values (Epoch: 2026-07-26T23:12:13.033Z)
Latitude
-0.00005°
Longitude
80.45194°
Altitude
1,220.477 km
Speed
7.244 km/s
True Right ascension
00h 52m 39s
True Declination
0° 00' 00"
Sunlit
Object was in daylight at epoch
Visualization orbit readout
Latitude
Unknown
Longitude
Unknown
Altitude
Unknown
Speed
Unknown
Apparent Right ascension
Unknown
Apparent Declination
Unknown
Sunlit
N/A
Visualization observer readout
Local Sidereal Time
05:39:00
Azimuth
Unknown
Elevation
Unknown
Doppler factor
Unknown
Orbital elements
Apogee altitude
1,216.762 km
Perigee altitude
1,212.832 km
Semi-major axis
7,592.934 km
Eccentricity
0.00026
Inclination
87.8896°
RAAN
13.1634°
Arg. of periapsis
87.493°
True anomaly
272.61977°
Mean anomaly
272.6494°
Eccentric anomaly
272.63459°
Mean motion
3.28041 °/min
Orbital period
109.74 mins
BSTAR
-0.0010033
Loading maneuver chart data...
Computing Atmospheric mass density...
Loading historical data...
Loading historical data...
Loading historical data...
Loading historical data...
Loading historical data...
Loading historical data...
Loading historical data...

Documentation

Showing up to 5 results
|